Regional Weather Roundup
Issued by NWS Albany, NY

Home | Current Version | Previous Version | Graphics & Text | Print | Product List | Glossary Off
Versions: 1 2 3 4 5 6 7 8 9 10 11 12 13 14 15 16 17 18 19 20 21 22 23 24 25 26 27 28 29 30 31 32 33 34 35 36 37 38 39 40 41 42 43 44 45 46 47 48 49 50

000
ASUS41 KALY 232210
RWRALY

NEW YORK STATE HOURLY WEATHER ROUNDUP
NATIONAL WEATHER SERVICE ALBANY NY
600 PM EDT WED JUL 23 2014

NOTE: "FAIR" INDICATES FEW OR NO CLOUDS BELOW 12,000 FEET WITH NO
SIGNIFICANT WEATHER AND/OR NO OBSTRUCTIONS TO VISIBILITY.

NYZ032-033-038>043-046>054-057>066-NYZ062>081-232300-
EAST


CITY           SKY/WX    TMP DP  RH WIND       PRES   REMARKS
ALBANY         TSTM      74  68  81 W13G25    29.77R
GLENS FALLS    LGT RAIN  75  70  84 W6        29.75R
POUGHKEEPSIE   MOSUNNY   89  72  56 S8        29.74F HX  96
NEWBURGH       MOSUNNY   86  72  62 W12       29.78F HX  92
MONTGOMERY     MOSUNNY   88  71  57 SW13      29.76F HX  94
WHITE PLAINS   MOSUNNY   82  71  69 S12G21    29.79F
ISLIP          MOSUNNY   81  70  69 SW13G22   29.80F
NEW YORK CITY  MOSUNNY   84  71  65 S10       29.78F
CENTRAL PARK   PTSUNNY   85  72  65 MISG      29.81F HX  91
$$

NYZ005>009-017-018-044>046-055-056-232300-
CENTRAL


CITY           SKY/WX    TMP DP  RH WIND       PRES   REMARKS
FULTON         CLOUDY    71  64  78 W10G18    29.86R
SYRACUSE       CLOUDY    72  66  83 W9        29.86S
ROME           CLOUDY    69  67  93 W10       29.85R
ELMIRA         CLOUDY    72  66  83 N6        29.89R
BINGHAMTON     LGT RAIN  68  67  96 NW14G21   29.88F
MONTICELLO     PTSUNNY   81  72  74 SW3       29.84S
$$

NYZ026>034-041>043-232300-
NORTH


CITY           SKY/WX    TMP DP  RH WIND       PRES   REMARKS
WATERTOWN      CLOUDY    73  59  61 N12       29.84R
FORT DRUM      NOT AVBL
MASSENA        CLOUDY    73  61  65 NW10      29.82R
SARANAC LAKE   CLOUDY    66  64  93 VRB5      29.83S
PLATTSBURGH    CLOUDY    73  68  84 CALM      29.76S
$$

NYZ001>004-010>016-019>021-232300-
WEST


CITY           SKY/WX    TMP DP  RH WIND       PRES   REMARKS
NIAGARA FALLS  PTSUNNY   70  58  65 NW16      29.94R
BUFFALO        PTSUNNY   69  57  65 N13       29.94R
DUNKIRK        CLOUDY    72  62  71 NW15G25   29.94S
JAMESTOWN      CLOUDY    66  61  82 NW12      29.97F
WELLSVILLE     CLOUDY    69  62  78 NW14      29.97S
ROCHESTER      CLOUDY    72  60  66 NW10G18   29.91R
PENN YAN       CLOUDY    70  66  87 VRB5      29.90S
$$

             KEY
       WCI = WIND CHILL INDEX
       VSB = VISIBILITY
       HX  = HEAT INDEX
$$


USA.gov is the U.S. government's official web portal to all federal, state and local government web resources and services.